OK1LPD-6 Weather Reports


time (UTC)temp
C
wind
direction
speed
KPH
gust
KPH
rain 1hr
cm
rain 24hr
cm
rain mn
cm
humidity
%
barometer
mb
20260502130522 26 135 0.0 1.6 0.00 0.00 0.00 21 1020.8
20260502123522 25 0 0.0 0.0 0.00 0.00 0.00 21 1020.9
20260502122522 25 0 0.0 0.0 0.00 0.00 0.00 21 1021.3
20260502121542 25 0 0.0 0.0 0.00 0.00 0.00 21 1021.4
20260502120523 25 0 0.0 0.0 0.00 0.00 0.00 21 1021.4
20260502115523 25 0 0.0 0.0 0.00 0.00 0.00 21 1021.6
20260502114541 25 0 0.0 0.0 0.00 0.00 0.00 21 1021.8
20260502113523 25 0 0.0 0.0 0.00 0.00 0.00 21 1021.9
20260502112523 24 0 0.0 0.0 0.00 0.00 0.00 22 1022.2
20260502111543 24 0 0.0 0.0 0.00 0.00 0.00 23 1022.1
20260502110523 24 0 0.0 0.0 0.00 0.00 0.00 21 1022.4
20260502105523 23 0 0.0 0.0 0.00 0.00 0.00 22 1022.4
20260502104540 23 0 0.0 0.0 0.00 0.00 0.00 22 1022.5
20260502103524 23 0 0.0 0.0 0.00 0.00 0.00 23 1022.6
20260502102524 23 0 0.0 0.0 0.00 0.00 0.00 23 1022.9
20260502101543 23 0 0.0 0.0 0.00 0.00 0.00 22 1022.9
20260502100524 22 0 0.0 0.0 0.00 0.00 0.00 23 1022.9
20260502090524 21 45 0.0 1.6 0.00 0.00 0.00 33 1023.8
20260502070525 15 0 0.0 0.0 0.00 0.00 0.00 50 1024.8
20260502065526 16 0 0.0 0.0 0.00 0.00 0.00 48 1024.9
20260502064544 17 0 0.0 0.0 0.00 0.00 0.00 49 1025.0
20260502063526 16 0 0.0 0.0 0.00 0.00 0.00 51 1025.2
20260502062526 15 0 0.0 0.0 0.00 0.00 0.00 51 1025.1
20260502061547 15 0 0.0 0.0 0.00 0.00 0.00 53 1025.3
20260502060526 13 0 0.0 0.0 0.00 0.00 0.00 57 1025.3
20260502055526 13 0 0.0 0.0 0.00 0.00 0.00 58 1025.3
20260502054544 12 0 0.0 0.0 0.00 0.00 0.00 64 1025.5
20260502053527 11 0 0.0 0.0 0.00 0.00 0.00 66 1025.5
20260502052527 10 0 0.0 0.0 0.00 0.00 0.00 68 1025.3
20260502051543 10 0 0.0 0.0 0.00 0.00 0.00 65 1025.4
20260502050527 10 0 0.0 0.0 0.00 0.00 0.00 66 1025.4
20260502045527 10 0 0.0 0.0 0.00 0.00 0.00 67 1025.3
20260502044537 10 0 0.0 0.0 0.00 0.00 0.00 71 1025.4
20260502043527 8 0 0.0 0.0 0.00 0.00 0.00 74 1025.4
20260502042527 8 0 0.0 0.0 0.00 0.00 0.00 81 1025.4
20260502041539 6 0 0.0 0.0 0.00 0.00 0.00 90 1025.4
20260502035527 5 0 0.0 0.0 0.00 0.00 0.00 91 1025.3
20260502034537 4 0 0.0 0.0 0.00 0.00 0.00 90 1025.3
20260502033527 4 0 0.0 0.0 0.00 0.00 0.00 90 1025.2
20260502032527 4 0 0.0 0.0 0.00 0.00 0.00 90 1025.3
20260502031539 5 0 0.0 0.0 0.00 0.00 0.00 90 1025.5
20260502030528 5 0 0.0 0.0 0.00 0.00 0.00 89 1025.3
20260502025528 5 0 0.0 0.0 0.00 0.00 0.00 88 1025.4
20260502024538 5 0 0.0 0.0 0.00 0.00 0.00 87 1025.4
20260502023528 5 0 0.0 0.0 0.00 0.00 0.00 88 1025.5
20260502022528 5 0 0.0 0.0 0.00 0.00 0.00 89 1025.3
20260502021539 5 0 0.0 0.0 0.00 0.00 0.00 89 1025.5
20260502020528 5 0 0.0 0.0 0.00 0.00 0.00 87 1025.5
20260502015528 5 0 0.0 0.0 0.00 0.00 0.00 86 1025.6
20260502014538 5 0 0.0 0.0 0.00 0.00 0.00 86 1025.5
20260502013529 6 0 0.0 0.0 0.00 0.00 0.00 86 1025.6
20260502012528 6 90 0.0 1.6 0.00 0.00 0.00 85 1025.6
20260502011546 6 0 0.0 0.0 0.00 0.00 0.00 85 1025.6
20260502010528 6 0 0.0 0.0 0.00 0.00 0.00 85 1025.7
20260502005529 6 0 0.0 0.0 0.00 0.00 0.00 83 1025.7
20260502004546 6 0 0.0 0.0 0.00 0.00 0.00 83 1025.7
20260502003529 6 0 0.0 0.0 0.00 0.00 0.00 83 1025.8
20260502002529 7 0 0.0 0.0 0.00 0.00 0.00 82 1025.9
20260502001549 7 0 0.0 0.0 0.00 0.00 0.00 82 1025.9
20260502000529 7 0 0.0 0.0 0.00 0.00 0.00 81 1025.9
20260501235530 7 0 0.0 0.0 0.00 0.00 0.00 81 1025.9
20260501234547 7 0 0.0 0.0 0.00 0.00 0.00 81 1025.9
20260501233530 7 0 0.0 0.0 0.00 0.00 0.00 74 1026.0
20260501232530 7 0 0.0 0.0 0.00 0.00 0.00 74 1026.0
20260501231549 7 0 0.0 0.0 0.00 0.00 0.00 73 1026.0
20260501230530 7 0 0.0 0.0 0.00 0.00 0.00 73 1026.0
20260501225531 8 0 0.0 0.0 0.00 0.00 0.00 72 1025.9
20260501224548 8 0 0.0 0.0 0.00 0.00 0.00 72 1025.8
20260501223530 8 0 0.0 0.0 0.00 0.00 0.00 72 1025.8
20260501222530 8 0 0.0 0.0 0.00 0.00 0.00 71 1026.0
20260501221550 9 0 0.0 0.0 0.00 0.00 0.00 71 1026.0
20260501220530 9 0 0.0 0.0 0.00 0.00 0.00 72 1026.0
20260501215530 9 0 0.0 0.0 0.00 0.00 0.00 71 1026.0
20260501214548 9 0 0.0 0.0 0.00 0.00 0.00 71 1025.9
20260501213530 9 0 0.0 0.0 0.00 0.00 0.00 70 1025.8
20260501212532 10 135 0.0 1.6 0.00 0.00 0.00 70 1025.9
20260501211551 10 0 0.0 0.0 0.00 0.00 0.00 70 1025.9
20260501210531 10 0 0.0 0.0 0.00 0.00 0.00 69 1025.7
20260501205531 11 0 0.0 0.0 0.00 0.00 0.00 70 1025.9
20260501204549 11 0 0.0 0.0 0.00 0.00 0.00 68 1025.9
20260501203531 11 0 0.0 0.0 0.00 0.00 0.00 67 1025.7
20260501202532 11 0 0.0 0.0 0.00 0.00 0.00 66 1025.8
20260501201552 12 0 0.0 0.0 0.00 0.00 0.00 67 1025.9
20260501200531 12 0 0.0 0.0 0.00 0.00 0.00 64 1025.8
20260501195531 12 0 0.0 0.0 0.00 0.00 0.00 64 1025.7
20260501194550 12 0 0.0 0.0 0.00 0.00 0.00 63 1025.8
20260501193532 12 0 0.0 0.0 0.00 0.00 0.00 60 1025.8
20260501192532 13 0 0.0 0.0 0.00 0.00 0.00 58 1025.6
20260501191552 13 0 0.0 0.0 0.00 0.00 0.00 56 1025.6
20260501190532 14 0 0.0 0.0 0.00 0.00 0.00 54 1025.5
20260501185533 15 0 0.0 0.0 0.00 0.00 0.00 50 1025.4
20260501184550 16 0 0.0 0.0 0.00 0.00 0.00 48 1025.4
20260501183533 16 0 0.0 0.0 0.00 0.00 0.00 46 1025.3
20260501182532 17 0 0.0 0.0 0.00 0.00 0.00 44 1025.2
20260501181553 17 0 0.0 0.0 0.00 0.00 0.00 40 1025.3
20260501180533 18 0 0.0 0.0 0.00 0.00 0.00 40 1025.2
20260501175532 18 0 0.0 0.0 0.00 0.00 0.00 37 1025.1
20260501174550 19 0 0.0 0.0 0.00 0.00 0.00 35 1025.1
20260501173532 20 0 0.0 0.0 0.00 0.00 0.00 32 1024.9
20260501172533 22 0 0.0 0.0 0.00 0.00 0.00 30 1025.0
20260501171453 23 0 0.0 0.0 0.00 0.00 0.00 26 1025.1
20260501170433 24 0 0.0 0.0 0.00 0.00 0.00 25 1025.1
20260501165433 24 0 0.0 0.0 0.00 0.00 0.00 25 1025.1
20260501164450 24 0 0.0 0.0 0.00 0.00 0.00 25 1025.4
20260501163433 23 0 0.0 0.0 0.00 0.00 0.00 25 1025.3
20260501162434 23 0 0.0 0.0 0.00 0.00 0.00 24 1025.2
20260501161453 23 0 0.0 0.0 0.00 0.00 0.00 25 1025.4
20260501160434 23 0 0.0 0.0 0.00 0.00 0.00 23 1025.4
20260501155433 25 0 0.0 0.0 0.00 0.00 0.00 23 1025.6
20260501154452 25 0 0.0 0.0 0.00 0.00 0.00 23 1025.5
20260501153434 23 0 0.0 0.0 0.00 0.00 0.00 24 1025.5
20260501152434 23 0 0.0 0.0 0.00 0.00 0.00 23 1025.6
20260501151457 23 0 0.0 0.0 0.00 0.00 0.00 24 1025.7
20260501150435 23 0 0.0 0.0 0.00 0.00 0.00 23 1025.8
20260501145434 23 0 0.0 0.0 0.00 0.00 0.00 25 1026.1